Погода в Буяге

Погода в Буяге : погода сейчас, прогноз погоды и архив. Всё, что Вы хотите узнать о погоде в Буяге!

Поиск расширенной информации на нашем сайте:

Полезная информация: Содержательный информационный сайт геологии Земли http://www.geologam.ru/

Другие новости

Новости СМИ2

Главная страница сайта

Новости сайта

03.07.2017

Напоминаем, что на нашем специализированном сайте Метеоцентр.Азия вы можете получить высокодетализированные автоматические прогнозы погоды по пунктам России, СНГ и мира в авиационном формате (включающие направление и скорость ветра, видимость, явления погоды, количество и форму облачности, нижнюю и верхнюю границу облачности).

Рекомендуем: Вшэ в праге высшая школа экономики прага.

Погода в Буяге - сегодня

Время (UTC), дата Ветер
(°,м/с) 
Видим.   Явления Облачность Т
(°С)
Тd
(°С)
f(%) Тe
(°С)
Pmin
(гПа)
dP
(гПа)
Po
(мм)
O2
(г/м3)
Тmin Tmax R s Состояние
почвы
03 19.11.17 тихо ()   20000 м    10/0 верхняя 
[Ci fib]
-32.2 -35.3 74 -32  1026.7  0.2  740  340           
06 19.11.17 тихо ()   20000 м    10/0 верхняя 
[Ci fib]
-31 -34.8 69 -31  1026.3  -0.2  740  338           
09 19.11.17 тихо ()   20000 м  слаб. снег  10/0 верхняя 
[Cs]
-32.8 -35.8 75 -33  1026.8  0.2  740  341           
12 19.11.17 тихо ()   20000 м  {снег}  10/0 верхняя 
[Cs]
-34 -36.2 80 -34  1026.6  -0.4  740  343    -26.6  0.2     
15 19.11.17 тихо ()   20000 м    ясно 
-36.2 -37.8 85 -36  1025.3  -1.6  739  345           
18 19.11.17 тихо ()   20000 м    ясно 
-38.3 -39.7 87 -38  1024.6  -1  738  348           
21 19.11.17 тихо ()   20000 м    ясно 
-38.7 -39.6 91 -39  1022.1  -2.6  736  348           
00 20.11.17 тихо ()   20000 м    4/0 верхняя 
[Cs]
-39.8 -41 88 -40  1020.5  -1.7  735  349  -40.3      24  равномерный
сухой снег
100% 
03 20.11.17 тихо ()   20000 м  слаб. снег  10/0 средняя 
[Ac As]
-35.3 -36.6 88 -35  1016.5  -3  733  341           
06 20.11.17 тихо ()   20000 м  слаб. снег  10/0 средняя 
[Ac As]
-29.6 -30.7 90 -30  1013.6  -1.9  731  332           
09 20.11.17 320 (СЗ) 20000 м  слаб. снег  10/0 средняя 
[As op]
-25.5 -26.7 90 -31  1011  -1.9  730  326           
12 20.11.17 340 (С) 20000 м  слаб. снег  10/0 средняя 
[As op]
-24.5 -25.7 90 -29  1009.8  -0.9  729  324    -24.5  0.7     
15 20.11.17 320 (СЗ) 20000 м  слаб. снег  10/0 средняя 
[As op]
-27.8 -29.1 89 -31  1009.6  -0.8  728  329           
18 20.11.17 320 (СЗ) 20000 м  слаб. снег  10/0 средняя 
[As op]
-29.3 -29.9 95 -30  1009.1  -0.7  728  330           
21 20.11.17 270 (З) 20000 м  {снег}  10/0 средняя 
[As op]
-29.5 -30.1 95 -33  1009.9  0.8  729  331           
00 21.11.17 270 (З) 20000 м  {снег}  10/0 средняя 
[As op]
-25.8 -27.6 85 -29  1009.8  0.4  729  326  -29.7    0.3  24  равномерный
сухой снег
100% 
03 21.11.17 270 (З) 20000 м    10/0 средняя 
[As trans]
-23.1 -25.7 79 -24  1009.6  0.3  729  323           
06 21.11.17 270 (З) 20000 м    10/0 средняя 
[As trans]
-22.3 -25.6 74 -27  1010.7  1.1  730  322           
09 21.11.17 270 (З) 20000 м  слаб. снег  10/0 средняя 
[As op]
-23.7 -25.6 84 -30  1011.6  0.6  730  324           
12 21.11.17 270 (З) 20000 м  слаб. снег  10/0 средняя 
[As op]
-22.6 -23.8 90 -27  1011.6  0.2  731  323    -22  0.3     
15 21.11.17 270 (З) 20000 м  слаб. снег  10/0 средняя 
[As op]
-22.9 -23.5 95 -26  1011.7  0.1  731  323           
18 21.11.17 270 (З) 20000 м  слаб. снег  10/0 средняя 
[As op]
-23.4 -24 95 -26  1011.7  731  324           
21 21.11.17 270 (З) 20000 м  слаб. снег  10/0 средняя 
[As op]
-23.6 -24.9 89 -24  1011.9  731  324           
00 22.11.17 250 (З) 20000 м  слаб. снег  10/0 средняя 
[As op]
-23 -25.6 79 -26  1011.8  0.1  731  323  -23.8    0.8  26  равномерный
сухой снег
100% 
03 22.11.17 270 (З) 20000 м  {снег}  9/0 верхняя 
[Cs]
-21.1 -25.1 70 -24  1011.6  0.1  731  321           
Время (UTC), дата Ветер
(°,м/с) 
Видим.   Явления Облачность Т
(°С)
Тd
(°С)
f(%) Тe
(°С)
Pmin
(гПа)
dP
(гПа)
Po
(мм)
O2
(г/м3)
Тmin Tmax R s Состояние
почвы

Для получения пояснительной информации подведите курсор к названию столбца.

ПОГОДА в Буяге - архив

Всё, что Вы хотите узнать о погоде в Буяге - удобно и подробно!

Выберите нужную дату (начиная с 1 января 2015* года) и нажмите кнопку "Найти".
Будут отображены архивные сводки погоды по пункту Буяга, начиная с указанной даты.


Отображать данные в формате CSV (для использования в таблицах Excel)


Внимание! Наш архив погоды предназначен исключительно для личного некоммерческого использования в познавательных целях. Если Вам необходимы официальные справки о состоянии погоды (для производственных, юридических, коммерческих и т.п. целей), обращайтесь в органы Росгидромета.

*Примечание: данная дата относится к архиву по метеостанциям СССР (Россия, СНГ, Балтия).
Архив по метеостанциям Зарубежной Европы и Азии (кроме Китая) хранится 10 дней, по другим регионам земного шара (Китай, Африка, Америка, Австралия, Океания) - 1 день.

Буяга - район местоположения метеостанции


Название, широта, долгота, высота метеостанции:
Буяга 59.6°ш. 127.2°д. 278 м над ур. моря [Российская Федерация]

Дополнительная информация

В oтличие oт бoльшинства пoгoдных сайтoв мы публикуем пoдрoбную метеoинфoрмацию в детальнoм прoфессиoнальнoм фoрмате.

Характеристики температуры и влажнoсти вoздуха измеряются на высoте 2 м в тени вдали oт зданий и деревьев.
Скoрoсть ветра измеряется на высoте 10 м (на урoвне рoста челoвека скoрoсть ветра ниже в 1.5-2 раза). Если метеoстанция нахoдится в гoрoде или в лесу, тo скoрoсть ветра занижена на 2-4 м/с пo сравнению с oткрытым местoм. Скoрoсть ветра над акватoриями крупных рек и oзёр, а также на вершинах хoлмoв на 2-5 м/с выше, чем в oбычных услoвиях.
Атмoсфернoе давление в разных тoчках местнoсти мoжет значительнo oтличаться oт давления на метеoстанции, в зависимoсти oт услoвий рельефа (при пoдъёме на 10 м давление пoнижается примернo на 1 мм рт.ст.).